Location: Allonne
(49.4086°N, 2.1143°E)
Time: 13:16:56
(UTC+00:00)

Cosmos 1340 - Pass Details

Date: 03 February 2023
Orbit: 479 x 484 km, 81.2° (Epoch: 21 March)

Event Time Altitude Azimuth Distance (km) Brightness Sun altitude
Rises 18:35:59 0° 349° (N) 2,555 6.3 -17.3°
Reaches altitude 10° 18:38:06 10° 352° (N) 1,672 5.3 -17.7°
Maximum altitude 18:41:45 73° 77° (ENE) 512 2.4 -18.3°
Drops below altitude 10° 18:45:23 10° 163° (SSE) 1,664 5.1 -18.9°
Enters shadow 18:45:33 - 163° (SSE) 1,729 5.2 -18.9°
